Content
SEND FEEDBACK

Daily
Averages
Monthly
Summary
Moldova

CHISINAU, MOLDOVA


Home > Europe > Moldova
Elevation: 590 feet     Latitude: 47 01N     Longitude: 028 52E

WEATHER
 
SELECT A DAY
Number of Records: 253,154;   Date Range: 7/1/96 - 12/17/14
 
SHARE

PRINT THIS DATA

[ ← Previous Day ]
WEATHER ALMANAC - JANUARY 3, 2013
[ Next Day → ]
[ °C ]   °F
Weather ElementAverageHighLow
Temperature24.8 °F37.4 °F (4:00 pm)10.4 °F (5:30 am)
Dewpoint20.4 °F28.4 °F (4:00 pm)8.6 °F (5:30 am)
Humidity84 %93 % (12:30 am)70 % (2:00 pm)
Barometer30.30 in30.36 in (8:00 am)30.18 in (11:00 pm)
Wind Speed3.8 mph13.8 mph (11:00 pm)
Weather ElementAverage
Visibility2.1 mi
Wind DirectionSSE (151.1 °)

Weather ElementTotal
Precipitation---
Heating Degree Days41.1 (Base 65)
Averaged from 47 records on January 3, 2013
WEATHER CONDITIONS BREAKOUT
WIND DIRECTION BREAKOUT
WEATHER BY HOUR - JANUARY 3, 2013
[ °C ]   °F
Local TimeTemperatureDewpointHumidityBarometerVisibilityWind DirectionWind SpeedGust SpeedPrecipitationEventsConditions
12:30 AM19.4 °F17.6 °F93 %30.27 in0.6 miNE (40°)3.5 mphFogLight Freezing Fog
1:00 AM19.4 °F17.6 °F93 %30.27 in0.5 miNNW (340°)3.5 mphFogLight Freezing Fog
1:30 AM15.8 °F14.0 °F93 %30.27 in0.7 miVariable2.3 mphMist
2:00 AM15.8 °F12.2 °F86 %30.30 in0.6 miVariable2.3 mph
2:30 AM19.4 °F17.6 °F93 %30.30 in0.7 miNW (310°)2.3 mphMist
3:00 AM19.4 °F17.6 °F93 %30.30 inCalmFogLight Freezing Fog
3:30 AM17.6 °F15.8 °F93 %30.30 in0.5 miWSW (250°)2.3 mphFogLight Freezing Fog
4:00 AM15.8 °F14.0 °F93 %30.30 inWest (270°)4.6 mph
4:30 AM12.2 °F10.4 °F92 %30.30 in0.6 miWNW (300°)3.5 mphMist
5:00 AM15.8 °F14.0 °F93 %30.30 in0.7 miNorth (350°)1.2 mphMist
5:30 AM10.4 °F8.6 °F92 %30.30 in0.7 miCalmMist
6:00 AM15.8 °F14.0 °F93 %30.30 in1.1 miVariable1.2 mphMist
6:30 AM15.8 °F14.0 °F93 %30.33 in1.2 miVariable1.2 mphMist
7:00 AM15.8 °F14.0 °F93 %30.33 in1.3 miCalmMist
7:30 AM17.6 °F15.8 °F93 %30.33 in1.1 miCalmMist
8:00 AM17.6 °F15.8 °F93 %30.36 in1.4 miVariable1.2 mphMist
8:30 AM17.6 °F15.8 °F93 %30.36 in1.2 miWest (260°)5.8 mphScattered Clouds
9:00 AM19.4 °F17.6 °F93 %30.36 in1.9 miWNW (290°)3.5 mphScattered Clouds
9:30 AM23.0 °F19.4 °F86 %30.36 in1.6 miNW (310°)4.6 mphPartly Cloudy
10:00 AM21.2 °F17.6 °F86 %30.36 in1.2 miVariable2.3 mphPartly Cloudy
10:30 AM23.0 °F19.4 °F86 %30.36 in1.4 miWest (260°)3.5 mphScattered Clouds
11:00 AM26.6 °F21.2 °F80 %30.36 in1.9 miNW (310°)3.5 mphScattered Clouds
11:30 AM26.6 °F21.2 °F80 %30.36 inVariable1.2 mphMostly Cloudy
12:00 PM26.6 °F23.0 °F86 %30.33 in1.3 miWest (260°)3.5 mphMostly Cloudy
12:30 PM28.4 °F23.0 °F80 %30.33 in1.4 miVariable1.2 mphMostly Cloudy
1:00 PM28.4 °F23.0 °F80 %30.33 in1.7 miCalmMostly Cloudy
1:30 PM32.0 °F24.8 °F75 %30.33 in1.7 miNNW (340°)2.3 mphMostly Cloudy
2:00 PM35.6 °F26.6 °F70 %30.33 inCalmPartly Cloudy
2:30 PM33.8 °F24.8 °F70 %30.33 in1.8 miEast (80°)3.5 mphPartly Cloudy
3:00 PM35.6 °F26.6 °F70 %30.30 in3.1 miVariable2.3 mphMist
3:30 PM35.6 °F26.6 °F70 %30.30 in3.7 miCalm
4:00 PM37.4 °F28.4 °F70 %30.30 in4.3 miVariable1.2 mph
4:30 PM35.6 °F26.6 °F70 %30.30 in5.0 miCalm
5:00 PM35.6 °F26.6 °F70 %30.30 in5.0 miWest (260°)2.3 mph
5:30 PM28.4 °F23.0 °F80 %30.27 in3.1 miSW (220°)5.8 mphMist
6:00 PM30.2 °F23.0 °F75 %30.27 in4.3 miWSW (240°)10.4 mph
6:30 PM30.2 °F24.8 °F80 %30.27 in4.3 miSW (220°)6.9 mph
7:00 PM28.4 °F23.0 °F80 %30.27 inSW (220°)5.8 mphMist
7:30 PM26.6 °F23.0 °F86 %30.27 inSSW (210°)5.8 mphScattered Clouds
8:00 PM28.4 °F24.8 °F86 %30.27 in3.7 miWest (260°)9.2 mphScattered Clouds
8:30 PM28.4 °F24.8 °F86 %30.24 in2.5 miSSW (210°)5.8 mphScattered Clouds
9:00 PM28.4 °F23.0 °F80 %30.24 inSSW (210°)3.5 mphPartly Cloudy
9:30 PM30.2 °F24.8 °F80 %30.24 in2.5 miSSW (200°)8.1 mphMist
10:00 PM30.2 °F24.8 °F80 %30.21 in3.7 miSSW (200°)9.2 mph
10:30 PM30.2 °F24.8 °F80 %30.21 in3.7 miSW (230°)12.7 mph
11:00 PM30.2 °F24.8 °F80 %30.18 in3.7 miSW (220°)13.8 mph
11:30 PM30.2 °F24.8 °F80 %30.18 in3.7 miSW (230°)10.4 mph
Hourly data recorded from LUKK, located miles away from Chisinau, Moldova







STORIES FROM OUR PARTNERS